User: anonymous   Login
Location: Unspecified
(0.0000°N, 0.0000°E)
Time: 17:33:59
(UTC+00:00)
Language:

GOES-R - Orbit

View from above orbital plane
View from above orbital plane
View from above satellite
View from above satellite

Ground track
Ground track

The orbit data is extracted from the following two-line orbital elements,

1 41866U 16071A   19080.42409895 -.00000274  00000-0  00000+0 0  9992
2 41866   0.0408 357.2353 0000852  47.2090 211.6581  1.00271242  8599
Epoch (UTC): 21 March 2019 10:10:42
Eccentricity: 0.0000852
inclination: 0.0408°
perigee height: 35783 km
apogee height: 35790 km
right ascension of ascending node: 357.2353°
argument of perigee: 47.2090°
revolutions per day: 1.00271242
mean anomaly at epoch: 211.6581°
orbit number at epoch: 859

The dashed part of the orbit path shows where the satellite is in the earth's shadow,  

DLR